Powrót do katalogu

THORAD AGENA D DEB

AktywnySSO
NORAD 42506·DEBRIS·🇺🇸 United States

Wystrzelony Apr 8, 1970 z Vandenberg Space Force Base

Loading…

Następne Przeloty (najbliższe 24 godziny)

TLE

ŚwieżeSource: Space-Track

Epoka: Sep 11, 2026, 10:16 UTC

1 42506U 70025RL  26254.42839470  .00000198  00000-0  22557-3 0  9999
2 42506  99.5566 331.1954 0050582  85.6937 274.9993 13.81671533294795

Śledź THORAD AGENA D DEB w czasie rzeczywistym z AllMySat

Download on the App Store